Regional Weather Roundup
Issued by NWS

Home | Current Version | Previous Version | Text Only | Print | Product List | Glossary On
Versions: 1 2 3 4 5 6 7 8 9 10 11 12 13 14 15 16 17 18 19 20 21 22 23 24 25 26 27 28 29 30 31 32 33 34 35 36 37 38 39 40 41 42 43 44 45 46 47 48 49 50
000
ASUS44 KBMX 060010
RWRAL

ALABAMA REGIONAL WEATHER ROUNDUP
NATIONAL WEATHER SERVICE BIRMINGHAM AL
700 PM CDT SUN JUL 05 2015

NOTE: "FAIR" INDICATES FEW OR NO CLOUDS BELOW 12,000 FEET
WITH NO SIGNIFICANT WEATHER AND/OR OBSTRUCTIONS TO VISIBILITY.

THE REMARK "TC" DENOTES TEMPERATURE IN DEGREES CELSIUS.

ALZ001>011-014-016>018-020-060100-
NORTH ALABAMA

CITY           SKY/WX    TMP DP  RH WIND       PRES   REMARKS
MUSCLE SHOALS  MOSUNNY   80  69  69 SW6       30.08R
6HR MIN TEMP:  81; 6HR MAX TEMP:  84;

HUNTSVILLE     PTSUNNY   81  69  67 SW5       30.05F
6HR MIN TEMP:  81; 6HR MAX TEMP:  84;

DECATUR        PTSUNNY   80  68  66 SW6       30.06S
6HR MIN TEMP:  80; 6HR MAX TEMP:  83;

HALEYVILLE     FAIR      79  72  79 CALM      30.11R
6HR MIN TEMP:  77; 6HR MAX TEMP:  82; 6HR PCP: TRACE;

GADSDEN        MOSUNNY   90  66  45 CALM      30.04S HX  92
6HR MIN TEMP:  88; 6HR MAX TEMP:  91;

$$

ALZ012-013-022-023-030>036-040>044-060100-
WEST CENTRAL ALABAMA

CITY           SKY/WX    TMP DP  RH WIND       PRES   REMARKS
TUSCALOOSA     CLOUDY    78  71  79 SW10      30.08R
6HR MIN TEMP:  78; 6HR MAX TEMP:  81; 6HR PCP: TRACE;

$$

ALZ015-024>027-033>036-040>044-060100-
CENTRAL ALABAMA

CITY           SKY/WX    TMP DP  RH WIND       PRES   REMARKS
BIRMINGHAM     PTSUNNY   81  70  69 W6        30.08S
6HR MIN TEMP:  79; 6HR MAX TEMP:  84;

MONTGOMERY     CLOUDY    78  71  79 CALM      30.05F
6HR MIN TEMP:  76; 6HR MAX TEMP:  84; 6HR PCP:  0.02;

SHELBY CO ARPT PTSUNNY   76  71  85 CALM      30.07R
6HR MIN TEMP:  76; 6HR MAX TEMP:  84;

MAXWELL AFB    CLOUDY    77  71  79 SW2       30.05F
6HR MIN TEMP:  74; 6HR MAX TEMP:  83; 6HR PCP:  0.03;

GREENVILLE     CLOUDY    71  67  87 SW3       30.07F
6HR MIN TEMP:  71; 6HR MAX TEMP:  82; 6HR PCP:  0.03;

$$

ALZ019-021-028-029-037-038-045>048-060100-
EAST CENTRAL ALABAMA

CITY           SKY/WX    TMP DP  RH WIND       PRES   REMARKS
ANNISTON       PTSUNNY   82  69  64 CALM      30.06F
6HR MIN TEMP:  81; 6HR MAX TEMP:  85;

ALEXANDER CITY CLOUDY    74  67  78 SW5       30.08S
6HR MIN TEMP:  74; 6HR MAX TEMP:  82; 6HR PCP:  0.03;

AUBURN         PTCLDY    77  68  73 SW8       30.10F
6HR MIN TEMP:  77; 6HR MAX TEMP:  82;

$$

ALZ051>064-060100-
SOUTHWEST ALABAMA

CITY           SKY/WX    TMP DP  RH WIND       PRES   REMARKS
MOBILE         CLOUDY    69  68  96 W5        30.13F
6HR MIN TEMP:  68; 6HR MAX TEMP:  73; 6HR PCP:  0.46;

BROOKLEY FIELD LGT RAIN  70  68  93 S5        30.12F
6HR MIN TEMP:  70; 6HR MAX TEMP:  79;

EVERGREEN      CLOUDY    71  69  93 SW5       30.10R
6HR MIN TEMP:  71; 6HR MAX TEMP:  79;

$$

ALZ049-050-065>069-060100-
SOUTHEAST ALABAMA

CITY           SKY/WX    TMP DP  RH WIND       PRES   REMARKS
DOTHAN         MOCLDY    77  71  82 S3        30.13F
6HR MIN TEMP:  72; 6HR MAX TEMP:  78; 6HR PCP:  0.01;

OZARK          PTCLDY    77  72  84 S7        30.09F
6HR MIN TEMP:  71; 6HR MAX TEMP:  79; 6HR PCP: TRACE;

TROY           CLOUDY    76  70  82 S3        30.07F
6HR MIN TEMP:  75; 6HR MAX TEMP:  83;

EUFAULA        FAIR      79  72  79 S3        30.08F
6HR MIN TEMP:  79; 6HR MAX TEMP:  84;

$$



USA.gov is the U.S. government's official web portal to all federal, state and local government web resources and services.